Baltimore, MD

8:25 PM EDT on August 21, 2017 (GMT -0400)
Baltimore-Washington International

Weather History for KBWI - November, 2014

Change the Weather History Date:

Sunday, November 30, 2014

  Actual Average Record
Temperature  
Mean Temperature 51 °F 41 °F  
Max Temperature 63 °F 51 °F 74 °F (1933)
Min Temperature 38 °F 32 °F 12 °F (1929)
Degree Days  
Heating Degree Days 14 24  
Month to date heating degree days 640 558  
Since 1 July heating degree days 892 904  
Cooling Degree Days 0 0  
Month to date cooling degree days 0 1  
Year to date cooling degree days 1084 1164  
Growing Degree Days 1 (Base 50)    
Moisture  
Dew Point 35 °F    
Average Humidity 59    
Maximum Humidity 74    
Minimum Humidity 43    
Precipitation  
Precipitation 0.00 in 0.12 in 1.19 in (1967)
Month to date precipitation 3.36 3.30  
Year to date precipitation 49.00 38.51  
Snow  
Snow 0.00 in 0.00 in 8.40 in (1967)
Month to date snowfall 0.3 0.4  
Since 1 July snowfall 0.3 0.4  
Snow Depth 0.00 in    
Sea Level Pressure  
Sea Level Pressure 30.12 in    
Wind  
Wind Speed 4 mph (SSW)    
Max Wind Speed 13 mph    
Max Gust Speed 17 mph    
Visibility 10 miles    
Events      
T = Trace of Precipitation, MM = Missing Value Source: NWS Daily Summary

Daily Weather History Graph

Daily Weather History Graph

Search for Another Location

Airport or City:

Trip Planner

Search our weather history database for the weather conditions in past years. The results will help you decide how hot, cold, wet, or windy it might be!

Date:

Astronomy

Nov. 30, 2014 Rise Set
Actual Time 7:06 AM EST 4:44 PM EST
Civil Twilight 6:36 AM EST 5:14 PM EST
Nautical Twilight 6:03 AM EST 5:47 PM EST
Astronomical Twilight 5:31 AM EST 6:19 PM EST
Moon 1:10 PM EST (11/30) 12:36 AM EST (11/30)
Length of Visible Light 10h 37m
Length of Day
9h 38m
Waxing Gibbous, 64% of the Moon is Illuminated
Nov 30
Waxing Gibbous
Dec 6
Full
Dec 14
Last Quarter
Dec 21
New
Dec 28
First Quarter

Hourly Weather History & Observations

Time (EST) Temp. Windchill Dew Point Humidity Pressure Visibility Wind Dir Wind Speed Gust Speed Precip Events Conditions
12:54 AM 43.0 °F - 28.9 °F 58% 30.15 in 10.0 mi Calm Calm - N/A   Mostly Cloudy
1:54 AM 43.0 °F - 28.9 °F 58% 30.16 in 10.0 mi Calm Calm - N/A   Mostly Cloudy
2:54 AM 44.1 °F - 28.9 °F 55% 30.16 in 10.0 mi Calm Calm - N/A   Mostly Cloudy
3:54 AM 42.1 °F - 28.9 °F 60% 30.15 in 10.0 mi Calm Calm - N/A   Mostly Cloudy
4:54 AM 39.9 °F 37.8 °F 28.0 °F 63% 30.15 in 10.0 mi South 3.5 mph - N/A   Scattered Clouds
5:54 AM 39.9 °F 35.8 °F 28.0 °F 63% 30.13 in 10.0 mi South 5.8 mph - N/A   Scattered Clouds
6:54 AM 39.0 °F - 28.0 °F 65% 30.14 in 10.0 mi Calm Calm - N/A   Scattered Clouds
7:54 AM 39.9 °F - 28.9 °F 65% 30.15 in 10.0 mi Calm Calm - N/A   Scattered Clouds
8:54 AM 43.0 °F 40.3 °F 30.0 °F 60% 30.15 in 10.0 mi SSW 4.6 mph - N/A   Mostly Cloudy
9:54 AM 46.0 °F 44.8 °F 30.9 °F 56% 30.15 in 10.0 mi SSW 3.5 mph - N/A   Mostly Cloudy
10:54 AM 51.1 °F - 33.1 °F 50% 30.13 in 10.0 mi SW 9.2 mph - N/A   Mostly Cloudy
11:54 AM 52.0 °F - 34.0 °F 50% 30.10 in 10.0 mi SSW 6.9 mph - N/A   Overcast
12:54 PM 55.0 °F - 36.0 °F 49% 30.07 in 10.0 mi SW 9.2 mph 17.3 mph N/A   Mostly Cloudy
1:54 PM 59.0 °F - 37.0 °F 44% 30.05 in 10.0 mi SSW 6.9 mph - N/A   Scattered Clouds
2:54 PM 62.1 °F - 39.0 °F 43% 30.04 in 10.0 mi SW 3.5 mph - N/A   Scattered Clouds
3:54 PM 62.1 °F - 41.0 °F 46% 30.05 in 10.0 mi SSW 4.6 mph - N/A   Mostly Cloudy
4:54 PM 55.9 °F - 41.0 °F 57% 30.07 in 10.0 mi ESE 3.5 mph - N/A   Mostly Cloudy
5:54 PM 53.1 °F - 41.0 °F 64% 30.09 in 10.0 mi Calm Calm - N/A   Mostly Cloudy
6:54 PM 50.0 °F - 41.0 °F 71% 30.11 in 10.0 mi Calm Calm - N/A   Mostly Cloudy
7:54 PM 51.1 °F - 41.0 °F 68% 30.12 in 10.0 mi Calm Calm - N/A   Mostly Cloudy
8:54 PM 50.0 °F - 42.1 °F 74% 30.13 in 10.0 mi Calm Calm - N/A   Mostly Cloudy
9:54 PM 59.0 °F - 42.8 °F 55% 30.13 in 10.0 mi SSW 6.9 mph - N/A   Overcast
10:54 PM 59.0 °F - 42.8 °F 55% 30.12 in 10.0 mi SSW 9.2 mph - N/A   Mostly Cloudy
11:54 PM 57.0 °F - 42.1 °F 57% 30.12 in 10.0 mi SW 5.8 mph - N/A   Partly Cloudy